Wind_Speed
15 15 15 15 15 15 16 17 18 18 18 18 19 19 20 20 21 21 21 21 22 22 22 22 21 19 17 16 15 13 12 11 12 12 13 13 13 13 13 13 13 14 15 15 16 16 15 14 15 15 15 15 14 14 13 13 13 13 13 13 14 14 14 15 15 16 16 17 19 20 21 22 22 22 21 21 22 22 23 23 22 22 22 22 24
15 14 14 15 15 15 16 17 18 19 19 20 21 21 21 22 22 22 22 23 23 23 23 22 19 18 16 15 14 13 12 12 13 13 13 13 13 13 12 13 13 14 14 15 15 14 14 13 14 14 14 13 13 12 12 12 12 13 13 14 14 14 14 15 15 15 16 17 18 19 21 21 22 22 21 21 21 21 22 23 24 23 23 22 23
14 14 14 15 15 16 16 17 19 20 21 21 22 21 22 22 22 23 23 23 23 23 22 21 18 16 15 14 13 13 12 12 13 13 13 13 13 12 12 12 13 14 14 14 14 13 13 13 13 13 12 12 11 11 11 11 12 12 13 13 13 14 15 15 15 15 16 16 17 19 20 21 21 21 21 21 20 20 20 21 22 23 23 23 23
13 13 14 14 16 17 18 18 19 20 21 21 21 21 21 22 22 22 22 22 22 21 20 19 17 15 14 13 13 13 13 13 12 13 13 13 12 12 12 12 13 13 13 13 13 12 12 12 12 11 11 11 10 10 10 10 11 11 12 12 13 13 14 14 15 15 15 16 17 18 19 20 20 20 20 20 20 19 19 19 20 21 22 23 24
13 13 14 15 17 18 19 19 20 20 21 21 21 20 20 21 21 22 21 21 20 20 19 17 16 14 13 13 13 13 13 12 12 12 13 12 12 12 12 12 12 12 13 12 12 12 11 11 10 10 10 10 9 9 9 9 10 10 11 11 11 12 12 13 13 13 14 15 16 17 19 19 20 20 19 19 19 19 18 17 18 19 21 22 23
13 13 14 16 18 19 19 20 20 21 21 21 20 20 20 19 20 20 20 19 18 18 17 16 14 13 12 12 13 13 12 12 12 12 12 12 12 12 11 11 12 12 12 12 11 11 10 10 9 9 9 8 8 8 8 7 8 8 8 9 9 9 10 11 11 12 12 13 15 17 18 19 20 20 19 18 18 18 17 16 17 18 20 21 22
14 14 15 17 19 19 19 20 20 20 21 20 20 20 19 19 18 18 18 18 17 16 16 14 12 12 12 11 12 12 12 11 11 11 12 11 11 11 11 11 11 11 11 11 10 10 9 9 8 7 7 7 7 6 6 6 6 6 6 7 7 8 8 9 10 11 12 13 15 17 18 19 20 20 19 19 18 18 17 16 17 18 19 20 21
14 15 16 17 18 19 19 19 19 20 20 19 18 18 18 17 16 16 15 15 15 15 14 13 11 11 11 11 11 11 11 11 11 11 11 11 11 11 10 10 11 11 11 10 10 9 9 8 7 6 5 5 5 5 4 4 4 5 5 6 7 7 8 8 9 11 12 14 16 17 18 19 19 19 19 19 19 18 17 16 17 18 19 20 21
15 15 16 16 17 18 18 18 18 18 18 18 17 16 16 16 15 14 13 12 13 13 12 11 11 10 10 11 11 10 10 11 11 10 10 10 10 10 9 10 10 10 10 9 9 9 8 7 6 5 4 3 3 3 3 3 3 4 4 5 6 6 7 8 9 11 13 14 16 17 17 18 18 19 19 19 19 19 18 17 17 18 20 21 22
15 15 15 15 16 16 16 16 17 16 16 16 16 15 15 14 13 12 11 10 10 10 10 10 10 10 10 10 10 10 9 10 11 11 10 10 9 9 8 9 9 9 9 9 9 8 7 7 6 5 3 2 1 2 2 2 2 3 3 4 4 5 6 8 9 11 12 14 15 16 16 17 18 18 19 19 19 19 18 18 18 19 20 21 22
15 15 15 14 14 14 14 14 14 14 14 14 14 13 13 12 11 10 9 9 8 8 9 9 9 9 9 10 10 10 9 10 11 11 10 9 9 8 8 8 8 7 7 8 8 7 6 6 5 4 3 2 1 1 1 1 1 1 2 2 3 5 6 7 9 10 11 13 14 15 16 16 17 18 18 18 19 19 18 18 19 20 21 21 22
14 14 13 13 12 12 12 12 12 12 12 12 13 12 11 10 10 9 9 8 7 7 7 8 8 8 8 9 10 10 10 10 10 10 9 8 8 7 7 7 7 6 6 6 6 5 6 6 6 4 3 2 1 1 1 0 1 1 1 2 3 5 6 8 9 10 11 13 14 15 15 16 17 17 18 17 17 18 18 18 18 19 20 21 22
12 12 12 12 11 10 10 10 10 10 10 10 11 10 9 9 8 8 8 7 6 6 6 6 6 6 6 8 9 10 10 9 9 10 9 8 8 7 6 6 5 5 5 4 5 5 5 5 6 5 4 3 2 2 2 2 2 1 1 3 4 5 7 9 10 11 12 14 14 15 15 16 17 17 17 17 17 17 17 17 18 18 19 20 21
10 10 10 10 9 9 8 8 8 8 9 9 9 8 7 7 6 6 6 5 5 5 5 5 5 5 5 7 8 8 8 8 8 8 7 7 6 6 6 5 4 4 4 4 4 4 3 2 3 4 4 3 2 2 2 2 2 2 2 3 5 6 9 10 11 11 13 14 15 15 16 16 17 16 16 16 16 17 17 17 18 18 19 20 21
9 9 8 8 8 7 7 7 6 7 7 7 7 7 6 5 5 5 5 4 4 4 4 4 4 4 4 6 7 7 7 7 7 7 6 5 5 4 5 4 4 4 3 3 3 2 2 1 3 3 3 3 3 3 3 3 2 2 2 3 5 7 9 10 10 12 13 14 15 15 16 16 17 16 16 16 17 17 17 17 18 18 18 19 21
8 8 8 8 7 6 6 6 6 5 6 6 6 6 6 4 4 3 3 3 4 3 3 3 3 3 3 4 6 6 6 6 6 6 5 5 4 3 4 3 3 3 2 2 1 1 1 2 3 4 4 3 4 4 3 3 2 2 2 3 5 7 8 10 10 11 13 14 15 15 16 16 17 17 16 16 17 17 17 17 18 18 18 19 20
7 8 8 7 7 6 6 5 5 4 4 5 6 5 5 5 4 3 3 2 3 3 3 3 3 3 2 3 4 5 5 5 5 5 4 4 4 3 3 3 2 2 2 1 0 0 2 2 3 5 5 4 5 5 4 4 3 2 2 3 5 6 8 9 10 11 12 13 14 15 16 17 17 17 17 17 17 17 17 17 18 18 19 19 20
6 7 7 7 6 6 5 5 5 4 3 3 3 4 4 4 4 3 3 2 2 3 3 3 3 3 2 3 4 4 4 4 5 4 4 3 3 2 2 3 1 1 0 1 2 2 3 4 4 5 6 6 5 5 6 5 4 4 2 2 4 6 8 9 10 11 12 13 14 15 17 17 18 18 18 17 18 18 17 17 18 18 19 20 20
4 5 5 5 5 5 5 4 4 3 3 3 2 3 4 3 3 3 3 2 2 2 3 3 3 3 3 3 3 3 2 3 3 3 3 3 3 2 1 2 1 0 1 1 3 4 4 5 6 6 7 7 6 6 6 6 6 6 4 4 5 7 8 9 10 11 11 12 14 15 17 18 18 19 19 19 18 18 17 17 18 19 19 20 20
3 4 4 4 4 4 4 4 4 4 4 4 3 3 3 3 3 3 3 3 3 3 3 3 3 3 3 4 3 3 2 2 1 2 2 3 3 2 1 1 1 1 1 2 4 5 5 6 6 7 8 7 6 6 6 6 6 6 5 5 7 8 9 9 10 10 11 12 14 15 16 18 19 19 19 19 19 18 17 17 18 19 20 20 21
3 3 3 3 4 4 4 4 4 4 4 3 3 4 4 4 5 4 4 4 4 4 4 3 3 3 3 4 4 4 3 2 2 1 1 2 2 2 2 1 2 3 2 4 5 5 6 7 7 7 8 7 7 6 6 6 6 6 5 7 8 9 9 9 9 10 11 13 14 15 16 17 18 18 19 19 19 19 18 18 18 19 20 20 21
3 3 3 3 3 3 4 4 4 3 2 2 2 4 4 5 5 5 5 5 5 5 5 4 4 4 4 5 5 5 4 4 3 3 2 2 2 2 2 2 3 3 4 4 5 6 7 7 8 7 7 7 7 6 6 5 6 6 7 8 8 8 9 9 10 10 12 14 15 15 15 16 16 17 17 18 18 19 19 19 19 20 21 21 20
3 3 3 2 2 2 3 3 3 3 2 2 2 3 4 4 5 5 6 6 5 5 5 5 5 5 5 6 6 5 5 5 5 4 4 3 3 3 3 3 3 3 4 4 5 6 7 7 7 7 6 6 5 6 7 7 7 7 8 8 8 8 8 9 10 12 13 15 15 15 14 14 14 15 16 17 18 19 19 20 20 21 21 21 20
5 5 4 4 3 3 2 2 2 2 1 1 2 2 2 3 4 4 5 5 5 5 5 5 6 6 6 6 6 5 5 5 5 5 5 5 4 4 4 4 4 3 4 4 5 5 6 6 7 6 6 5 4 5 7 7 7 8 8 7 7 7 8 9 11 13 14 15 15 14 13 12 13 13 15 16 17 18 19 19 20 21 21 21 21
7 6 6 5 5 4 4 3 2 2 2 2 2 2 2 2 3 4 4 4 4 5 5 5 6 6 5 5 5 5 5 5 5 5 5 5 5 5 5 4 4 4 4 4 5 4 5 6 6 6 6 5 4 4 6 6 5 6 7 6 6 6 8 10 11 13 14 14 13 12 11 11 12 13 13 15 16 17 18 18 19 20 20 20 20
7 7 7 7 6 6 5 4 4 3 3 3 3 3 3 3 3 3 4 4 4 4 5 5 5 5 5 5 5 5 5 4 4 5 5 5 5 5 5 5 4 4 4 4 5 5 5 5 6 5 5 4 4 4 5 4 3 5 5 4 5 6 8 10 12 13 13 13 12 11 10 10 11 12 13 14 16 16 17 17 18 18 19 20 20
6 6 7 7 6 6 5 5 5 4 5 5 4 4 4 4 3 4 4 4 4 4 5 5 6 6 5 5 5 5 5 4 4 5 4 4 4 4 4 4 4 4 4 4 5 6 5 6 6 6 5 5 5 5 5 4 3 3 3 4 4 6 8 10 11 12 12 11 10 9 10 10 11 12 13 14 15 16 16 17 17 18 18 19 19
5 5 6 6 6 5 5 5 5 5 5 5 5 5 5 4 4 4 5 5 5 5 5 6 6 6 6 6 6 6 6 5 5 5 5 4 4 4 3 4 4 5 5 5 5 6 6 7 7 6 6 7 6 5 5 3 2 2 3 4 5 6 8 10 12 12 11 9 8 8 9 10 11 12 13 14 15 16 17 17 18 18 17 17 18
6 6 5 5 5 5 4 4 4 4 5 5 5 5 5 5 5 5 5 5 6 7 6 6 7 8 8 8 8 7 7 7 7 6 6 6 5 5 5 5 5 5 5 5 6 6 6 7 7 6 6 7 6 5 4 3 3 3 4 6 6 7 9 11 12 12 10 8 7 7 8 9 11 12 13 14 16 17 18 19 19 18 17 17 17
6 6 6 6 6 5 4 4 4 4 4 4 4 5 5 5 5 5 5 4 6 8 7 6 8 8 9 9 9 9 9 9 9 8 8 8 7 7 7 7 7 7 7 7 7 7 6 8 8 7 7 7 5 5 4 3 4 4 6 8 8 9 11 13 13 12 10 8 7 7 8 9 10 12 13 15 17 18 19 20 20 18 18 17 16
7 7 7 7 6 6 5 4 4 4 5 5 5 5 6 6 6 5 5 5 7 8 7 6 7 8 9 9 9 9 9 9 9 9 9 9 9 9 8 8 8 8 8 9 8 8 7 8 8 8 8 8 7 6 5 4 5 6 7 8 9 11 13 14 14 12 10 8 8 8 8 8 10 11 13 15 17 18 20 20 20 19 18 17 17
9 9 9 8 7 7 6 5 5 5 5 6 6 6 6 6 6 6 6 6 6 7 7 7 7 7 8 9 9 9 8 9 9 9 9 9 9 9 8 8 8 8 8 8 8 8 7 8 8 8 8 8 7 7 6 5 5 6 8 8 10 12 14 14 13 12 10 8 9 8 8 7 9 10 13 15 16 18 20 20 20 19 18 17 17
11 11 10 10 9 8 7 7 6 6 7 7 7 7 7 6 5 6 7 6 6 7 7 7 7 7 7 8 8 8 8 8 9 8 8 9 8 8 9 8 7 7 7 7 8 7 5 6 7 7 8 7 6 6 7 5 5 6 8 9 11 13 15 15 13 10 9 8 8 7 6 7 8 9 11 14 16 17 19 19 18 18 18 17 17
13 13 12 12 11 10 9 8 8 8 8 8 8 8 7 6 6 6 7 7 7 7 7 7 7 7 7 8 8 8 8 8 9 9 9 9 9 8 8 7 7 7 7 6 6 6 5 5 6 6 7 7 6 6 6 5 6 7 9 11 13 14 16 15 12 9 7 7 6 5 5 6 7 8 10 13 15 16 18 18 17 16 17 17 17
15 15 14 13 14 13 11 10 10 10 9 9 9 9 8 8 7 7 8 8 7 7 7 6 7 7 7 8 8 8 8 9 9 9 9 8 8 8 8 7 7 7 6 6 5 5 4 4 5 5 5 5 5 5 6 6 7 9 11 13 15 16 16 15 11 7 6 6 5 4 4 5 6 7 9 11 13 15 16 17 15 15 15 15 15
18 17 16 15 15 15 14 13 13 12 11 11 10 10 10 10 9 9 9 9 8 7 7 6 6 7 7 7 7 7 8 8 9 9 8 7 8 8 8 8 8 7 7 6 5 4 3 3 4 5 5 6 6 6 7 8 9 11 13 15 16 17 16 15 12 8 6 5 4 4 4 4 5 6 8 9 12 14 15 16 15 14 13 14 14
20 19 18 17 17 17 17 16 15 14 13 13 12 12 12 12 11 11 11 10 9 8 8 7 7 7 7 7 6 6 6 7 7 7 7 7 7 7 7 7 7 7 7 6 6 5 5 4 4 5 6 7 8 9 10 11 12 13 15 16 16 16 16 14 12 9 7 6 5 5 5 5 6 7 8 9 10 12 13 14 14 14 13 13 13
21 21 20 20 19 19 19 18 17 17 16 16 15 14 14 14 13 13 13 12 11 10 10 9 9 8 8 8 7 6 6 6 7 7 6 6 6 6 6 7 7 7 7 7 7 7 7 6 6 7 8 9 10 11 11 13 14 14 15 15 15 15 15 15 13 10 8 7 7 7 7 6 7 7 8 8 9 11 11 12 12 13 13 13 14
23 23 22 22 21 21 20 20 20 20 19 18 17 17 16 15 15 15 14 14 13 12 12 11 11 10 10 10 9 8 8 8 8 8 8 7 7 7 7 7 7 8 8 8 9 9 9 9 10 10 11 11 12 12 12 13 13 14 14 15 14 14 14 14 13 10 8 8 9 9 9 8 7 7 8 8 9 11 11 11 11 12 11 12 13
25 25 25 24 23 22 22 22 22 22 22 21 20 19 19 18 17 16 16 15 14 14 14 13 13 13 12 12 12 11 10 11 11 10 10 9 9 9 8 9 9 10 11 11 11 12 12 13 13 13 14 14 14 13 14 14 13 13 14 14 14 14 14 15 14 12 10 9 10 11 11 9 8 9 9 9 10 11 11 11 11 12 11 11 11
25 26 26 26 25 24 23 23 24 24 24 24 23 22 21 20 19 18 17 17 17 16 15 15 15 15 15 14 14 13 13 13 13 13 12 12 11 11 11 11 12 12 13 13 13 14 14 15 15 15 15 15 15 14 14 14 13 14 15 15 14 15 15 16 17 16 14 12 12 14 14 12 11 11 11 11 11 11 11 11 10 11 12 12 11
26 26 26 27 27 27 26 25 26 26 26 26 25 24 24 22 20 19 18 19 18 16 16 17 17 17 17 17 17 16 15 15 14 14 14 13 13 13 13 13 13 14 14 15 15 14 15 15 16 16 16 16 16 15 15 15 14 14 15 15 15 15 15 16 18 19 18 16 15 15 16 15 13 13 13 12 13 13 12 11 10 10 11 11 11
27 27 28 28 29 29 28 28 28 27 28 29 27 26 26 24 23 22 21 21 20 19 19 20 19 19 19 19 19 18 17 17 16 15 15 14 14 14 15 15 15 15 15 16 16 15 15 15 16 16 16 16 16 17 16 15 14 15 16 16 16 16 16 16 17 20 21 20 18 17 19 18 15 14 15 15 15 15 14 13 12 11 11 12 11
28 29 29 30 30 30 30 31 30 29 31 32 30 28 28 26 25 24 23 23 23 22 22 22 21 20 20 20 20 21 20 18 17 16 16 15 15 15 16 16 16 16 16 16 17 16 15 15 16 17 17 17 17 18 19 17 16 16 17 17 17 17 17 17 17 19 22 22 20 19 21 21 19 17 18 18 18 17 16 16 15 13 13 13 13
29 29 29 31 32 32 31 31 32 32 34 35 32 31 30 27 26 26 26 25 25 25 24 23 23 22 22 21 22 22 22 21 19 18 17 16 16 17 17 17 18 18 18 17 17 17 17 16 17 18 19 18 18 19 20 19 19 18 18 18 18 18 18 17 17 19 21 22 20 18 20 22 21 19 19 20 20 19 18 17 17 16 15 15 15
27 28 29 29 30 32 33 33 33 34 36 35 33 33 33 30 27 27 28 28 27 27 26 25 25 24 23 23 23 23 24 24 22 20 19 19 19 18 18 19 20 20 20 19 19 19 19 18 18 19 21 21 21 21 21 21 21 20 20 19 19 19 18 18 18 19 21 22 22 19 19 22 22 20 20 20 20 20 20 19 18 18 17 16 17
26 28 30 29 28 30 33 35 36 37 37 35 32 33 35 34 31 30 30 29 29 28 28 27 26 26 26 25 25 25 26 26 24 23 23 22 21 21 21 21 21 22 22 22 22 21 21 20 21 22 23 23 23 23 24 24 23 22 21 21 21 21 19 19 19 20 21 22 23 21 19 21 23 21 21 21 21 21 21 21 20 20 19 18 18
24 25 27 30 32 32 33 34 37 39 38 35 33 34 36 37 35 33 32 30 29 29 29 28 28 28 28 27 27 27 28 27 26 25 26 26 24 23 23 23 24 24 24 24 24 24 23 23 23 24 25 25 25 25 26 26 26 25 23 22 24 23 21 20 21 22 22 23 24 23 21 21 23 23 22 22 22 21 22 22 21 21 21 21 19
21 23 25 28 32 34 34 33 35 38 39 38 36 36 38 39 37 35 33 32 30 29 29 29 29 29 30 30 29 30 30 29 28 27 28 29 27 26 25 25 26 26 26 26 25 25 25 24 24 25 27 27 27 28 28 29 29 28 25 24 26 25 23 22 22 23 24 24 25 25 23 22 24 25 24 23 22 22 23 24 23 23 23 23 22
18 21 25 28 31 34 35 36 35 34 36 39 39 38 39 38 37 35 34 33 32 31 29 29 30 30 31 32 32 32 32 31 30 29 29 29 29 28 27 27 27 28 28 27 26 26 26 25 24 25 28 29 29 29 30 31 31 30 27 26 27 27 25 24 24 24 25 26 27 27 25 25 25 26 26 25 24 25 25 25 24 25 25 25 24
19 19 21 25 27 29 33 38 40 36 35 38 41 41 39 37 35 35 34 34 33 31 30 30 30 30 30 31 33 34 34 33 31 30 30 31 30 29 28 28 28 29 29 28 28 29 28 26 25 26 28 30 30 31 31 32 33 33 31 28 28 28 27 27 27 26 26 28 29 29 27 27 28 28 27 26 25 26 28 27 26 27 27 26 26
Wind_Direction
108 106 103 104 104 106 107 108 112 117 117 117 120 123 122 121 121 121 123 126 127 127 127 125 125 124 122 119 115 112 108 104 101 101 104 108 112 116 115 115 119 122 124 125 123 119 114 109 103 99 98 96 94 91 87 84 80 77 73 69 63 58 54 50 48 46 45 44 42 39 37 36 34 33 31 30 28 26 24 22 21 20 19 16 12
109 107 104 104 104 103 103 106 110 115 116 117 117 118 119 120 122 124 126 128 128 127 126 124 122 120 118 115 111 107 103 101 100 102 106 110 114 115 115 115 119 123 127 128 125 120 114 107 102 100 99 97 95 91 86 83 79 76 72 67 61 56 52 50 47 45 43 41 37 33 32 31 30 28 27 25 23 22 20 19 17 16 15 13 10
106 104 104 105 105 104 103 105 110 113 115 115 115 117 120 122 124 125 127 127 126 126 124 122 120 118 115 111 107 103 99 97 98 104 108 112 114 115 114 116 120 126 130 131 127 121 113 106 102 101 101 99 96 90 86 83 80 77 71 65 61 56 52 50 47 43 39 36 32 28 27 28 26 24 23 21 20 18 16 15 13 12 11 9 7
106 105 105 105 104 104 105 107 110 111 112 114 116 119 121 123 124 124 124 125 125 124 123 121 119 116 113 109 104 100 96 95 98 104 109 112 114 114 114 117 123 129 133 133 128 122 114 107 104 103 102 99 96 91 88 86 82 77 71 65 60 56 53 50 46 41 36 32 28 25 24 24 23 20 19 17 16 14 11 10 10 10 9 6 5
106 106 105 105 104 104 106 108 109 111 113 116 118 119 120 122 123 122 124 125 124 124 121 119 117 114 111 106 102 97 95 97 101 106 110 113 115 115 116 120 126 131 134 134 131 125 118 111 107 105 104 101 98 94 92 89 83 77 72 68 64 59 55 50 46 39 33 28 23 19 16 15 16 14 13 11 10 8 6 4 6 8 7 5 4
106 107 107 106 105 105 107 108 109 111 114 116 117 119 119 120 121 122 124 125 126 124 120 117 117 112 107 103 99 95 95 99 103 108 113 116 118 118 119 123 127 132 136 136 135 130 124 117 112 110 107 105 103 101 98 94 88 82 78 74 70 64 57 52 46 39 31 24 16 11 7 6 7 7 6 5 4 2 1 360 1 5 6 4 4
110 110 110 110 109 108 109 109 110 112 113 115 118 119 119 120 121 122 125 127 126 124 120 117 115 110 104 98 95 94 95 99 104 110 114 117 119 121 123 126 129 134 139 139 138 136 130 124 119 116 114 113 111 108 106 102 95 87 82 76 69 61 54 48 42 33 24 15 9 4 2 1 1 2 360 358 358 357 357 358 360 3 5 4 3
110 111 112 112 112 112 112 112 112 112 114 116 117 118 118 120 121 122 125 127 126 123 119 115 111 105 101 97 94 95 97 101 105 109 115 119 122 124 125 127 131 136 140 142 142 142 138 132 127 123 121 120 119 115 112 103 92 81 74 68 61 55 47 40 31 22 14 9 6 4 3 2 0 360 357 355 354 353 355 358 0 3 5 4 2
110 111 112 112 112 113 114 114 114 115 116 117 117 117 118 119 119 121 123 125 124 121 118 115 108 104 100 96 92 93 97 103 106 109 114 118 121 124 126 127 129 133 139 144 146 147 146 141 135 129 126 126 123 117 104 85 75 67 62 58 52 46 36 28 21 15 11 10 9 8 6 3 1 358 356 354 353 352 354 359 2 4 5 3 2
110 111 112 113 113 114 115 116 116 116 118 118 117 117 116 116 118 120 121 121 122 121 118 112 107 105 100 95 92 92 96 103 108 109 111 115 119 122 126 127 126 131 140 148 150 152 154 150 144 137 131 130 118 95 81 60 52 46 44 40 34 28 22 19 16 13 12 11 9 7 4 1 358 356 354 353 352 353 355 359 3 5 7 4 2
110 112 113 115 115 117 118 118 117 117 119 119 118 116 114 116 120 122 122 121 121 120 117 112 109 109 104 98 96 95 100 103 105 106 108 112 116 122 125 125 128 133 141 149 150 154 160 157 152 146 138 136 117 89 69 46 37 25 12 3 7 11 13 15 15 13 11 9 5 1 0 359 356 355 354 353 352 353 356 359 2 6 7 5 2
111 113 115 116 118 119 120 121 120 120 123 120 117 116 118 121 125 127 126 125 123 120 119 118 115 112 109 104 97 95 99 103 105 105 108 110 111 119 124 124 128 131 139 144 141 155 174 165 158 156 151 153 150 126 130 180 223 252 305 338 357 5 6 7 9 9 7 4 -0 358 358 358 356 355 355 355 355 355 357 360 3 6 8 6 3
114 115 118 119 121 121 122 125 123 122 123 119 116 119 125 129 134 134 132 131 130 126 123 123 119 114 113 108 102 101 101 103 106 106 108 110 111 118 124 129 131 134 143 136 136 170 189 175 164 163 169 177 185 197 219 237 251 277 325 348 357 359 359 -0 0 1 2 359 357 357 358 358 358 357 357 357 357 358 360 2 4 7 9 8 5
119 118 119 120 121 122 124 127 127 124 123 122 123 127 132 137 139 138 138 140 142 137 132 128 123 117 115 110 105 106 109 109 106 103 104 107 112 120 127 136 143 150 152 135 148 177 183 195 190 176 182 199 214 229 246 265 282 312 343 353 351 352 354 355 355 356 358 357 357 358 359 359 358 358 360 360 -0 1 2 4 6 9 11 10 7
129 126 125 126 125 125 126 127 129 130 129 130 131 135 141 146 146 143 147 160 163 155 147 139 130 123 122 120 114 112 115 116 111 107 107 106 111 117 124 145 164 168 160 142 154 152 129 233 260 234 211 215 234 246 260 278 290 312 335 343 344 347 351 351 350 353 355 357 358 358 358 357 357 359 2 4 3 3 4 4 6 9 11 11 9
139 138 137 137 137 134 129 129 132 135 135 134 135 142 146 148 156 158 158 173 182 182 174 162 151 136 131 134 131 124 117 114 115 117 112 108 118 125 131 158 182 176 168 159 155 103 156 222 265 266 251 241 248 256 267 274 280 301 317 330 339 345 348 348 348 351 354 358 358 356 355 355 356 358 2 7 7 5 4 4 5 7 10 11 10
145 145 145 148 148 144 140 139 142 148 150 144 138 144 148 150 159 168 172 177 191 208 201 187 171 152 146 143 140 135 129 128 131 131 121 118 130 140 142 158 195 192 184 211 238 274 258 248 260 272 274 267 263 269 279 286 285 283 298 324 339 347 349 349 349 351 355 359 357 353 352 352 352 356 1 7 8 7 5 3 3 5 8 10 11
148 147 148 150 151 152 153 153 154 165 176 155 139 147 155 154 158 170 180 177 193 226 220 203 189 175 171 161 150 146 145 147 146 138 133 132 130 125 135 154 193 234 205 291 302 284 288 295 291 291 290 285 291 298 300 306 298 286 297 339 352 354 355 353 351 353 357 357 354 351 349 349 350 354 0 6 9 8 6 3 1 3 7 11 13
150 149 150 151 153 156 158 159 161 179 195 186 182 188 176 166 173 185 192 183 191 232 235 223 212 194 186 182 173 168 164 157 153 147 149 146 132 120 118 130 153 277 330 307 302 296 300 304 298 298 299 303 317 318 313 313 307 307 324 355 9 5 358 356 354 356 358 353 351 349 348 346 348 353 359 7 10 10 8 5 2 2 6 12 14
149 151 154 154 158 162 163 167 171 188 206 202 202 208 200 203 214 216 222 216 214 235 243 241 237 221 205 205 200 198 205 197 183 172 162 154 144 149 145 110 160 226 266 276 287 301 305 303 301 303 307 314 322 319 319 322 318 320 336 3 15 9 2 359 359 359 355 350 348 348 346 344 346 352 360 7 13 15 13 9 5 4 7 12 15
144 146 153 151 151 154 157 163 167 184 205 199 202 220 220 223 228 229 231 230 229 236 242 245 246 240 230 226 224 221 226 237 237 226 197 180 167 170 187 191 217 242 261 272 287 303 305 304 307 308 309 316 321 318 323 329 323 328 357 18 16 10 6 3 -0 357 350 347 346 346 346 343 346 354 2 10 18 21 19 15 10 8 10 12 13
163 153 152 148 146 145 142 144 148 159 177 178 202 221 221 221 223 227 230 231 232 235 241 245 243 240 238 236 235 235 241 253 256 258 249 215 204 217 228 226 236 254 262 275 296 305 307 308 307 306 309 314 317 317 329 341 337 343 9 22 18 13 9 2 357 352 346 345 345 346 347 347 352 360 8 15 20 22 22 19 15 12 12 12 13
210 192 180 171 166 160 151 149 145 142 144 156 189 207 211 216 218 221 227 232 236 238 241 244 243 240 238 238 240 243 248 257 267 274 274 260 242 237 242 251 260 274 278 286 298 306 314 316 308 307 309 310 318 328 339 347 349 1 18 24 21 15 6 358 352 346 344 345 346 350 353 355 1 9 15 18 17 18 19 18 16 13 12 13 13
215 213 207 201 200 200 195 183 172 174 173 173 193 196 198 207 211 216 222 228 235 236 238 240 241 240 239 240 243 245 251 259 269 278 282 281 273 261 257 261 265 274 286 291 296 307 318 314 306 305 305 314 342 351 347 345 347 6 24 24 16 8 358 352 345 342 343 345 349 355 1 5 11 17 18 15 14 14 13 13 12 10 10 12 14
210 211 214 214 216 217 215 217 218 219 216 210 217 223 217 213 215 218 223 226 228 229 236 242 243 244 245 248 250 249 251 253 260 271 279 282 283 280 276 270 269 271 276 283 289 296 300 301 301 297 299 322 352 353 346 343 347 10 23 17 4 355 350 344 340 341 342 345 352 1 8 13 17 20 16 11 10 11 9 8 7 5 5 8 11
205 207 213 214 216 217 214 214 221 225 227 226 227 231 233 232 230 233 235 230 221 219 231 241 249 252 253 256 257 256 253 249 249 254 261 267 275 283 283 280 278 277 270 270 276 279 281 287 287 284 295 319 334 336 336 336 354 19 21 6 350 341 339 338 337 339 341 345 355 5 13 16 15 14 11 9 8 6 6 5 3 1 1 2 5
205 206 211 211 209 211 209 208 212 218 225 229 230 232 233 235 236 243 248 243 235 228 225 232 246 251 253 255 256 257 255 251 250 246 240 242 251 261 270 274 277 279 276 274 275 279 284 283 280 289 305 311 319 328 328 332 1 20 8 351 342 333 332 335 336 340 343 347 358 7 12 11 8 7 6 7 6 2 2 2 -0 359 358 358 360
218 217 215 215 212 208 207 207 211 215 220 226 228 232 235 235 235 241 249 252 254 252 236 230 239 243 246 250 250 253 255 255 254 249 240 239 243 244 252 261 267 274 280 280 281 283 286 284 285 294 300 301 307 312 317 335 351 346 334 326 329 330 330 334 338 342 345 349 358 5 7 3 -0 1 2 3 1 359 359 360 358 356 355 355 357
221 227 226 227 223 217 215 214 218 220 224 227 229 235 239 240 238 238 244 251 257 257 248 236 238 240 242 247 248 248 251 254 255 254 253 254 252 250 251 253 257 265 272 277 281 286 286 285 288 288 284 292 302 303 312 330 316 309 309 309 321 334 335 337 341 342 344 349 358 1 360 357 355 355 357 358 358 358 359 358 357 355 354 355 356
226 231 234 237 233 228 225 222 225 228 228 230 233 239 240 241 241 240 245 251 252 254 252 243 243 243 244 246 248 249 252 254 256 257 258 258 255 254 253 252 251 254 261 266 270 275 277 278 282 280 277 286 298 302 306 302 292 293 297 306 324 337 338 339 338 339 341 345 353 357 354 353 351 352 353 355 356 358 359 358 357 355 354 355 356
242 241 240 241 241 238 233 228 228 231 234 235 234 238 240 240 241 241 240 240 247 256 258 250 248 247 248 250 251 253 255 257 260 262 262 260 258 256 256 254 252 252 257 260 260 263 264 268 273 275 282 292 295 292 286 273 277 283 293 308 323 332 337 336 333 335 340 343 349 353 351 351 351 350 351 353 355 357 359 359 357 356 355 356 358
246 247 247 247 247 246 242 236 232 231 236 238 236 237 238 238 241 245 244 242 248 259 261 256 255 254 255 258 259 259 258 260 264 266 267 265 262 260 258 256 254 252 254 256 260 262 258 264 270 269 278 287 285 280 276 268 269 278 290 305 318 325 329 329 330 334 340 345 347 346 348 349 349 349 350 351 353 357 359 359 358 357 356 358 359
245 249 251 252 252 251 251 248 241 232 233 236 238 239 238 236 241 251 258 257 256 261 263 262 263 264 265 266 265 265 264 264 266 270 274 275 274 271 268 267 266 266 266 267 274 275 264 266 269 265 273 283 281 276 275 274 275 280 292 304 314 319 321 323 332 337 337 343 342 337 340 342 343 347 349 349 353 357 358 358 359 357 356 358 -0
241 243 248 254 254 251 249 251 246 239 237 238 239 243 243 240 238 245 258 265 263 264 266 267 267 268 270 271 270 268 267 265 266 270 275 281 283 281 277 276 276 276 278 281 283 280 273 274 277 274 282 294 295 286 279 278 282 286 294 302 309 314 316 321 330 332 328 330 328 324 328 331 336 344 348 349 352 354 355 357 359 359 357 357 359
239 239 242 249 254 251 246 247 248 246 243 242 241 243 246 246 241 239 246 254 259 263 267 271 271 270 269 271 271 270 267 265 265 266 269 275 279 281 281 280 277 277 280 281 280 282 282 281 282 285 289 293 294 290 285 283 283 289 295 300 307 311 313 316 321 322 318 315 313 310 313 320 330 341 346 347 348 349 350 353 357 359 357 356 357
240 241 241 242 248 250 245 242 246 246 244 244 243 242 243 244 244 244 245 248 252 258 263 267 269 268 268 269 272 272 270 268 267 266 267 271 274 274 276 278 278 280 284 284 286 290 287 279 278 283 286 288 290 291 291 289 289 294 299 303 309 311 312 314 317 320 320 314 308 306 307 315 323 334 341 341 341 344 346 349 352 354 354 353 352
240 244 243 241 243 247 246 244 244 245 244 243 242 240 241 242 243 245 248 251 254 255 256 258 256 256 259 263 267 270 270 272 273 271 269 269 269 270 273 277 279 281 284 287 291 290 286 282 276 274 278 283 288 291 293 294 297 301 303 306 311 313 314 316 318 319 318 313 309 306 308 314 318 324 332 333 334 337 340 343 345 346 346 346 346
243 245 246 246 245 246 247 247 247 247 246 245 242 240 240 240 242 244 245 247 251 254 254 253 251 251 251 255 259 259 260 264 269 271 270 268 270 274 277 281 284 287 289 289 291 291 291 291 286 282 281 282 286 290 293 296 299 303 304 306 308 311 312 313 315 318 314 306 302 299 298 301 303 308 314 318 321 325 329 335 338 338 339 339 339
249 248 246 247 248 247 248 249 249 250 249 248 247 245 244 243 243 244 244 244 245 247 250 251 250 249 248 251 255 256 256 258 260 265 269 271 275 279 282 286 290 291 292 293 293 294 296 296 296 294 291 289 288 290 292 294 297 298 298 300 302 303 304 305 308 316 315 304 299 297 293 291 291 292 295 301 309 315 321 327 330 330 331 331 332
249 251 249 247 248 249 250 251 251 251 251 251 250 249 248 247 247 248 248 248 246 244 246 248 249 249 247 248 251 254 257 259 261 264 268 272 276 279 281 285 287 288 289 290 292 294 296 296 295 294 293 291 290 290 289 288 288 289 289 291 295 300 303 304 307 314 315 309 307 306 302 296 294 296 295 295 302 309 314 318 322 323 324 326 327
245 249 251 251 251 251 251 252 253 252 252 252 252 252 250 249 249 251 252 254 253 250 249 249 249 250 249 248 249 251 254 257 260 264 268 270 273 276 278 279 279 281 284 285 287 289 290 290 290 290 290 290 291 291 290 290 289 288 288 291 295 299 302 304 307 310 311 309 309 309 306 303 303 303 298 294 297 303 304 305 310 314 316 318 320
247 248 250 252 252 251 250 251 253 254 254 253 251 252 253 252 251 251 252 255 255 253 254 254 252 251 251 251 251 250 250 254 257 262 265 269 270 272 274 274 275 276 278 279 281 281 281 283 285 287 288 289 291 292 290 292 293 292 292 295 296 297 298 299 301 305 307 307 307 307 305 303 307 309 304 299 300 300 297 295 297 301 303 304 307
253 251 250 250 251 251 250 250 252 253 254 254 253 252 252 252 252 251 251 253 252 252 254 255 253 253 253 254 254 253 250 250 253 256 259 262 265 266 266 267 268 269 270 272 273 274 276 278 280 283 285 286 289 289 289 289 291 291 292 294 294 294 294 295 296 299 301 303 306 305 303 303 307 311 308 305 304 302 300 297 296 297 298 298 298
256 256 253 251 251 250 249 250 251 252 253 254 254 253 252 251 251 252 251 251 252 253 254 255 255 256 256 257 258 258 256 253 252 253 254 256 257 259 261 262 262 263 264 266 269 272 273 275 277 279 280 282 283 285 288 290 289 288 288 289 291 291 292 294 294 293 293 297 301 300 299 301 306 309 307 305 304 303 302 302 302 300 298 297 296
258 260 256 252 252 251 250 250 250 251 254 255 254 254 254 253 252 253 253 252 253 254 255 256 257 257 258 260 261 263 263 262 258 256 256 256 256 257 258 261 262 263 263 265 267 270 272 274 276 277 277 277 277 279 283 286 287 287 287 288 289 290 292 294 293 290 290 293 296 295 293 295 300 303 303 302 302 302 302 303 303 302 300 298 297
258 258 253 251 253 254 253 252 251 251 253 255 256 257 258 256 253 253 254 254 254 255 256 256 257 258 259 259 261 263 265 266 265 262 260 258 257 257 257 259 261 264 266 266 266 267 269 271 273 274 274 276 277 279 280 281 282 283 285 287 288 289 291 293 291 289 291 293 295 296 295 295 297 300 300 299 300 300 300 301 301 301 299 297 297
254 254 251 250 255 259 258 254 252 252 252 253 255 258 259 258 254 252 253 254 255 257 257 258 258 258 258 258 259 261 262 264 266 267 265 262 259 259 260 260 260 262 266 267 267 267 268 269 270 273 276 279 281 282 283 283 284 284 286 288 288 288 291 291 290 289 291 293 296 298 298 297 298 300 300 299 299 299 299 299 300 299 296 294 294
253 253 252 248 250 255 257 256 253 253 253 253 252 253 256 258 256 254 254 255 256 258 259 260 261 262 262 261 260 260 261 262 264 265 266 266 264 263 263 264 264 264 265 266 268 270 271 272 273 275 277 280 281 282 282 283 284 286 288 288 287 288 291 291 291 291 292 294 295 297 298 298 298 299 300 298 299 299 299 298 298 298 296 294 293
255 251 251 251 252 253 251 250 252 254 254 253 251 250 252 254 256 256 256 256 257 258 260 263 264 265 266 266 265 264 264 264 263 263 264 266 267 266 265 265 266 267 267 268 271 273 273 274 278 280 279 279 280 281 281 282 283 286 288 288 287 289 292 291 291 292 292 293 293 294 297 297 297 297 298 298 299 299 298 298 299 299 297 296 295
258 253 249 250 256 256 248 242 245 251 252 251 250 249 249 250 252 254 255 256 256 257 259 263 265 266 267 268 268 267 267 266 264 264 264 264 265 266 266 266 267 268 270 272 274 274 273 274 278 280 280 279 280 281 283 284 286 287 288 288 289 291 293 292 291 290 290 290 289 291 293 293 292 294 295 297 299 299 297 297 298 299 299 298 297
259 258 252 248 253 257 253 248 245 244 244 246 247 246 246 246 247 248 249 252 252 253 254 257 260 261 263 266 267 266 265 265 265 265 265 265 265 266 266 267 268 269 270 270 271 272 272 273 273 275 279 281 282 284 286 288 289 291 291 292 291 291 291 291 291 289 287 285 285 286 288 288 289 290 291 291 293 294 294 295 295 295 296 297 297
Height
5929 5930 5931 5932 5932 5932 5932 5932 5932 5933 5933 5933 5934 5935 5935 5936 5936 5937 5938 5940 5941 5942 5943 5944 5945 5946 5947 5947 5948 5948 5949 5949 5949 5949 5949 5949 5949 5950 5950 5950 5951 5951 5952 5952 5952 5952 5952 5953 5952 5952 5952 5952 5952 5952 5952 5952 5952 5951 5951 5951 5950 5949 5948 5947 5946 5945 5944 5943 5942 5941 5939 5938 5937 5935 5933 5932 5930 5928 5926 5924 5922 5920 5918 5915 5913
5931 5932 5933 5934 5934 5934 5934 5934 5934 5934 5935 5935 5935 5936 5936 5937 5938 5939 5941 5942 5943 5944 5945 5945 5947 5947 5948 5949 5949 5949 5950 5950 5950 5950 5950 5950 5950 5951 5951 5951 5952 5952 5953 5953 5954 5954 5954 5954 5954 5954 5954 5954 5954 5954 5954 5954 5953 5953 5952 5952 5951 5951 5950 5949 5948 5947 5945 5944 5943 5942 5941 5939 5938 5936 5934 5933 5931 5929 5927 5925 5923 5921 5918 5916 5914
5932 5933 5934 5935 5936 5936 5936 5936 5936 5937 5937 5937 5938 5938 5939 5940 5941 5942 5943 5944 5945 5945 5946 5946 5948 5949 5949 5950 5950 5950 5950 5951 5951 5951 5951 5951 5951 5952 5952 5953 5953 5954 5954 5955 5955 5956 5956 5956 5956 5956 5956 5956 5956 5955 5955 5955 5955 5954 5954 5953 5953 5952 5951 5950 5949 5948 5947 5945 5944 5943 5942 5940 5939 5937 5935 5934 5932 5930 5928 5926 5924 5921 5919 5917 5915
5933 5935 5936 5937 5937 5938 5938 5938 5938 5939 5939 5939 5940 5941 5942 5943 5944 5945 5946 5946 5946 5946 5947 5948 5949 5950 5951 5951 5951 5951 5951 5951 5952 5952 5952 5952 5953 5953 5954 5954 5954 5955 5956 5956 5957 5957 5957 5957 5957 5957 5957 5957 5957 5957 5957 5956 5956 5955 5955 5955 5954 5953 5952 5951 5950 5949 5948 5946 5945 5944 5943 5941 5939 5938 5936 5934 5932 5930 5929 5927 5925 5922 5920 5917 5914
5935 5936 5937 5938 5938 5939 5939 5940 5940 5941 5941 5942 5943 5944 5945 5945 5946 5946 5947 5947 5948 5948 5949 5949 5951 5951 5952 5952 5952 5952 5952 5952 5953 5953 5953 5953 5954 5954 5955 5955 5956 5956 5957 5957 5958 5958 5958 5958 5959 5959 5959 5959 5958 5958 5958 5957 5957 5957 5956 5956 5955 5954 5953 5952 5951 5950 5949 5947 5946 5945 5943 5942 5940 5938 5936 5935 5933 5931 5929 5927 5925 5923 5920 5917 5915
5937 5937 5938 5939 5939 5940 5941 5942 5942 5943 5944 5945 5945 5946 5947 5947 5948 5948 5948 5949 5949 5950 5950 5951 5952 5953 5953 5953 5953 5953 5953 5953 5953 5954 5954 5954 5955 5955 5956 5956 5957 5957 5958 5958 5959 5959 5959 5960 5960 5960 5960 5960 5959 5959 5959 5958 5958 5957 5957 5956 5955 5955 5954 5953 5952 5951 5949 5948 5947 5945 5944 5942 5941 5939 5937 5935 5933 5931 5929 5927 5925 5923 5920 5918 5915
5938 5939 5939 5940 5941 5942 5943 5944 5945 5945 5946 5947 5947 5947 5948 5949 5949 5950 5950 5951 5951 5951 5952 5953 5953 5954 5954 5954 5954 5954 5954 5954 5955 5955 5955 5955 5956 5956 5957 5957 5957 5958 5958 5959 5960 5960 5960 5960 5961 5961 5961 5961 5960 5960 5959 5959 5958 5958 5957 5957 5956 5955 5955 5954 5953 5952 5950 5949 5947 5946 5944 5943 5941 5939 5937 5935 5933 5931 5929 5927 5925 5923 5920 5918 5915
5939 5940 5941 5942 5942 5943 5944 5945 5946 5947 5948 5948 5948 5949 5949 5950 5951 5951 5952 5952 5952 5953 5953 5954 5955 5955 5955 5955 5955 5955 5955 5955 5955 5956 5956 5957 5957 5957 5958 5958 5958 5959 5959 5960 5960 5961 5961 5961 5961 5962 5962 5962 5961 5961 5960 5960 5959 5959 5958 5957 5957 5956 5955 5955 5954 5952 5951 5950 5948 5946 5945 5943 5941 5940 5938 5936 5933 5931 5930 5927 5925 5923 5921 5918 5916
5940 5941 5942 5943 5944 5945 5946 5946 5947 5948 5949 5949 5950 5950 5951 5952 5952 5953 5954 5954 5954 5954 5955 5956 5956 5956 5956 5956 5956 5956 5956 5956 5956 5957 5957 5958 5958 5958 5959 5959 5959 5960 5960 5961 5961 5961 5962 5962 5962 5962 5962 5962 5962 5961 5961 5960 5960 5959 5959 5958 5958 5957 5956 5955 5954 5953 5952 5950 5948 5947 5945 5943 5942 5940 5938 5936 5933 5931 5929 5928 5926 5923 5921 5918 5916
5942 5943 5944 5944 5945 5946 5947 5948 5948 5949 5950 5950 5951 5952 5952 5953 5954 5955 5955 5956 5956 5956 5956 5957 5957 5957 5957 5957 5957 5957 5957 5957 5957 5958 5958 5959 5959 5959 5960 5960 5961 5961 5961 5961 5961 5962 5962 5962 5962 5963 5963 5963 5962 5962 5962 5961 5961 5960 5959 5959 5958 5957 5957 5956 5955 5953 5952 5950 5949 5947 5945 5943 5942 5940 5938 5936 5933 5931 5929 5927 5925 5923 5921 5918 5915
5944 5945 5945 5946 5947 5947 5948 5949 5950 5951 5952 5952 5952 5952 5953 5954 5955 5956 5957 5957 5957 5958 5958 5958 5958 5958 5958 5958 5958 5958 5958 5958 5958 5959 5959 5960 5960 5960 5961 5961 5962 5962 5962 5962 5962 5962 5963 5962 5962 5963 5963 5963 5963 5962 5962 5961 5961 5960 5960 5959 5958 5958 5957 5956 5955 5953 5952 5950 5949 5947 5945 5944 5942 5940 5938 5936 5934 5932 5930 5927 5925 5923 5921 5919 5916
5946 5947 5947 5948 5948 5949 5950 5950 5951 5952 5953 5953 5953 5954 5955 5956 5956 5957 5957 5958 5958 5959 5959 5959 5959 5959 5959 5959 5959 5959 5959 5959 5960 5960 5961 5961 5961 5961 5962 5962 5963 5963 5963 5963 5963 5963 5963 5962 5962 5963 5963 5963 5963 5962 5962 5961 5961 5960 5960 5959 5959 5958 5957 5956 5955 5953 5952 5950 5949 5947 5945 5944 5942 5940 5938 5936 5934 5932 5930 5928 5926 5924 5922 5919 5916
5948 5949 5949 5950 5950 5951 5951 5952 5952 5953 5954 5954 5954 5955 5956 5957 5957 5958 5958 5959 5959 5960 5960 5960 5960 5960 5960 5960 5960 5960 5960 5960 5961 5961 5961 5962 5962 5962 5963 5963 5964 5964 5964 5964 5964 5964 5963 5963 5962 5962 5963 5963 5962 5962 5962 5961 5961 5960 5960 5960 5959 5958 5957 5956 5955 5954 5952 5951 5949 5947 5945 5944 5942 5940 5938 5936 5934 5932 5930 5928 5926 5924 5922 5920 5917
5950 5950 5951 5951 5952 5952 5953 5953 5954 5954 5955 5955 5956 5957 5957 5958 5958 5959 5959 5960 5960 5960 5961 5961 5961 5961 5961 5961 5961 5961 5961 5961 5962 5962 5962 5963 5963 5963 5964 5964 5964 5965 5964 5965 5965 5964 5965 5965 5964 5962 5962 5962 5962 5962 5962 5961 5961 5961 5960 5960 5959 5959 5958 5956 5955 5954 5952 5951 5949 5947 5946 5944 5942 5940 5939 5937 5935 5933 5931 5929 5927 5925 5923 5920 5918
5951 5952 5952 5953 5953 5954 5954 5954 5955 5955 5956 5956 5957 5958 5959 5959 5959 5959 5960 5961 5961 5961 5962 5962 5962 5962 5962 5962 5962 5962 5962 5962 5963 5963 5964 5964 5964 5964 5965 5965 5965 5965 5965 5966 5966 5966 5966 5966 5965 5964 5963 5962 5962 5962 5962 5961 5961 5961 5960 5960 5959 5959 5958 5957 5955 5954 5952 5951 5949 5947 5946 5944 5942 5940 5939 5937 5935 5933 5931 5929 5927 5925 5923 5921 5918
5952 5953 5954 5954 5955 5955 5955 5956 5956 5956 5957 5957 5958 5959 5959 5960 5960 5960 5961 5961 5962 5962 5962 5963 5963 5962 5962 5963 5962 5963 5963 5964 5964 5964 5964 5965 5965 5965 5966 5966 5966 5966 5966 5967 5967 5967 5967 5966 5965 5965 5963 5962 5962 5961 5961 5961 5961 5960 5960 5960 5959 5958 5958 5957 5955 5954 5952 5951 5949 5948 5946 5944 5942 5940 5939 5937 5935 5933 5932 5930 5928 5926 5924 5922 5919
5953 5954 5954 5955 5956 5956 5956 5957 5957 5957 5957 5958 5958 5959 5960 5960 5960 5961 5961 5962 5962 5963 5963 5963 5963 5963 5963 5963 5963 5963 5964 5964 5965 5965 5965 5966 5966 5966 5967 5967 5967 5967 5967 5967 5967 5967 5967 5966 5966 5965 5964 5962 5961 5962 5961 5960 5960 5960 5959 5959 5959 5958 5958 5957 5955 5954 5953 5951 5949 5948 5946 5944 5942 5940 5939 5937 5936 5934 5932 5930 5928 5926 5924 5922 5920
5954 5955 5955 5956 5956 5957 5957 5958 5958 5958 5958 5959 5959 5960 5961 5961 5961 5961 5962 5962 5963 5963 5964 5964 5964 5964 5964 5964 5964 5964 5965 5965 5965 5965 5966 5966 5966 5967 5967 5968 5968 5968 5968 5968 5968 5968 5967 5967 5966 5965 5964 5963 5962 5962 5962 5961 5961 5960 5959 5958 5958 5958 5958 5957 5956 5954 5953 5951 5950 5948 5946 5944 5942 5941 5939 5938 5936 5934 5932 5931 5929 5927 5925 5923 5920
5955 5955 5956 5956 5957 5957 5958 5958 5959 5959 5959 5960 5960 5961 5962 5961 5962 5962 5963 5963 5963 5964 5964 5965 5965 5965 5965 5965 5965 5965 5966 5966 5966 5966 5967 5967 5967 5967 5968 5968 5968 5968 5968 5968 5968 5968 5968 5967 5967 5965 5964 5964 5964 5964 5963 5962 5962 5962 5960 5958 5958 5958 5957 5957 5955 5954 5953 5951 5950 5948 5946 5944 5942 5941 5939 5938 5936 5935 5933 5931 5929 5927 5925 5923 5921
5955 5956 5956 5957 5957 5958 5958 5959 5959 5959 5960 5960 5961 5962 5962 5962 5962 5963 5963 5964 5964 5965 5965 5965 5965 5965 5965 5965 5966 5966 5966 5967 5967 5967 5967 5967 5967 5968 5968 5968 5969 5969 5969 5969 5968 5968 5968 5967 5967 5966 5965 5965 5965 5964 5963 5963 5963 5962 5961 5958 5957 5957 5957 5956 5955 5954 5953 5952 5950 5948 5946 5944 5943 5941 5940 5938 5937 5935 5933 5932 5930 5928 5925 5923 5921
5955 5956 5957 5957 5958 5958 5959 5959 5959 5960 5960 5960 5960 5961 5961 5962 5962 5963 5964 5964 5965 5965 5965 5965 5965 5966 5966 5966 5966 5967 5967 5967 5968 5968 5968 5968 5968 5968 5968 5969 5969 5969 5969 5969 5969 5968 5968 5967 5967 5966 5965 5965 5964 5963 5962 5962 5962 5961 5960 5958 5957 5957 5957 5956 5955 5954 5953 5952 5950 5948 5947 5945 5943 5942 5940 5939 5937 5936 5934 5932 5930 5928 5926 5924 5922
5956 5956 5957 5958 5958 5959 5959 5960 5960 5960 5960 5961 5961 5962 5962 5962 5963 5963 5964 5965 5965 5965 5965 5965 5966 5966 5966 5967 5967 5967 5968 5968 5968 5968 5968 5969 5968 5968 5968 5969 5969 5969 5969 5969 5969 5968 5968 5968 5967 5966 5965 5965 5964 5963 5962 5962 5962 5961 5960 5958 5958 5957 5957 5956 5955 5954 5953 5951 5950 5948 5947 5945 5944 5942 5941 5939 5938 5936 5935 5933 5931 5929 5927 5925 5923
5956 5956 5957 5958 5958 5959 5960 5960 5961 5961 5961 5962 5962 5962 5962 5963 5963 5964 5964 5965 5965 5965 5965 5966 5966 5966 5966 5967 5967 5968 5968 5968 5969 5969 5969 5969 5969 5968 5969 5969 5969 5969 5969 5969 5969 5968 5968 5967 5967 5966 5965 5965 5965 5964 5963 5963 5963 5962 5960 5959 5958 5958 5957 5956 5955 5954 5953 5951 5950 5948 5947 5945 5944 5943 5941 5940 5938 5937 5935 5934 5932 5930 5927 5925 5923
5956 5956 5957 5957 5958 5959 5959 5960 5961 5961 5961 5962 5962 5962 5963 5963 5964 5964 5964 5964 5965 5965 5966 5966 5966 5967 5967 5967 5967 5968 5968 5968 5969 5969 5969 5969 5969 5969 5969 5969 5969 5969 5969 5969 5969 5968 5968 5967 5966 5965 5964 5965 5965 5965 5964 5964 5963 5962 5960 5959 5959 5958 5957 5956 5955 5954 5953 5951 5950 5948 5947 5946 5945 5943 5942 5941 5939 5937 5936 5934 5933 5931 5929 5926 5924
5956 5956 5957 5958 5958 5959 5959 5960 5960 5961 5961 5961 5962 5962 5963 5963 5964 5964 5964 5964 5965 5965 5966 5966 5966 5967 5967 5967 5968 5968 5968 5968 5968 5969 5969 5969 5969 5969 5969 5969 5969 5968 5968 5968 5968 5968 5967 5966 5966 5965 5964 5965 5965 5965 5964 5963 5963 5961 5960 5960 5959 5958 5957 5956 5955 5954 5953 5951 5950 5949 5947 5946 5945 5944 5943 5941 5940 5938 5937 5935 5933 5932 5929 5927 5925
5956 5957 5957 5958 5959 5959 5959 5960 5960 5961 5961 5961 5961 5962 5962 5963 5964 5964 5964 5964 5965 5965 5966 5966 5967 5967 5967 5967 5968 5968 5968 5968 5968 5968 5968 5969 5969 5969 5969 5969 5969 5968 5968 5968 5968 5968 5967 5966 5965 5964 5964 5964 5964 5964 5964 5963 5962 5961 5961 5960 5960 5958 5957 5956 5955 5954 5952 5951 5950 5949 5948 5947 5946 5944 5943 5942 5940 5939 5937 5936 5934 5932 5930 5928 5926
5956 5957 5957 5958 5958 5959 5959 5960 5960 5960 5961 5961 5961 5962 5962 5963 5963 5964 5964 5965 5965 5965 5966 5966 5967 5967 5967 5967 5968 5968 5968 5968 5968 5967 5968 5968 5968 5968 5968 5968 5968 5968 5968 5968 5968 5968 5967 5966 5965 5964 5963 5964 5964 5964 5964 5963 5962 5961 5960 5960 5959 5958 5957 5956 5954 5953 5952 5951 5950 5949 5948 5947 5946 5945 5944 5942 5941 5939 5938 5936 5935 5933 5931 5929 5927
5956 5957 5957 5957 5958 5958 5959 5960 5960 5960 5961 5961 5961 5962 5962 5963 5963 5964 5964 5965 5966 5965 5966 5966 5967 5967 5967 5967 5967 5967 5968 5968 5968 5967 5967 5967 5968 5968 5968 5968 5968 5968 5968 5968 5968 5967 5967 5966 5966 5965 5964 5964 5964 5963 5963 5962 5961 5961 5960 5959 5958 5957 5956 5955 5954 5953 5952 5951 5950 5949 5948 5947 5946 5945 5944 5942 5941 5940 5938 5936 5935 5933 5931 5930 5928
5956 5957 5957 5957 5958 5958 5959 5959 5960 5960 5960 5961 5961 5962 5962 5963 5963 5964 5964 5965 5965 5966 5965 5966 5966 5967 5967 5967 5967 5967 5967 5967 5968 5968 5967 5967 5968 5968 5968 5968 5968 5967 5967 5967 5967 5967 5967 5966 5965 5965 5964 5963 5962 5962 5961 5960 5960 5960 5959 5958 5957 5956 5956 5955 5954 5953 5952 5951 5950 5949 5948 5947 5946 5945 5944 5942 5941 5940 5938 5936 5935 5933 5931 5930 5928
5956 5956 5957 5957 5958 5958 5958 5959 5959 5960 5960 5960 5961 5961 5962 5963 5963 5964 5964 5964 5965 5966 5965 5965 5966 5966 5967 5967 5967 5967 5967 5967 5967 5968 5967 5967 5967 5967 5967 5967 5967 5967 5966 5966 5966 5966 5966 5965 5965 5964 5964 5963 5962 5961 5960 5960 5960 5959 5959 5958 5957 5956 5956 5955 5954 5953 5952 5951 5950 5949 5948 5947 5946 5945 5944 5942 5941 5940 5938 5936 5935 5933 5932 5930 5929
5956 5956 5957 5957 5957 5958 5958 5958 5959 5959 5960 5960 5961 5961 5962 5963 5964 5964 5964 5965 5965 5966 5965 5965 5966 5966 5966 5966 5966 5967 5967 5967 5967 5967 5967 5967 5967 5966 5966 5966 5966 5966 5965 5965 5965 5965 5965 5964 5964 5963 5963 5963 5962 5961 5960 5960 5960 5959 5959 5958 5957 5956 5956 5955 5954 5953 5952 5951 5950 5949 5948 5947 5946 5945 5944 5942 5941 5940 5938 5937 5935 5933 5932 5931 5929
5954 5955 5956 5956 5957 5957 5957 5958 5958 5959 5959 5960 5960 5961 5962 5963 5963 5963 5964 5964 5965 5965 5965 5965 5965 5965 5965 5966 5966 5966 5966 5966 5966 5966 5966 5966 5966 5966 5966 5965 5965 5964 5964 5963 5963 5963 5963 5963 5963 5963 5963 5963 5962 5961 5960 5959 5959 5959 5959 5958 5957 5956 5956 5955 5954 5953 5952 5951 5950 5950 5949 5948 5947 5945 5944 5943 5941 5940 5938 5937 5935 5934 5932 5931 5930
5953 5954 5954 5955 5956 5957 5957 5958 5958 5958 5959 5960 5960 5960 5961 5962 5962 5962 5963 5963 5964 5964 5965 5965 5965 5965 5965 5965 5965 5966 5966 5966 5966 5966 5966 5966 5966 5965 5965 5965 5965 5964 5963 5963 5962 5962 5962 5962 5962 5962 5962 5962 5961 5961 5960 5959 5959 5959 5959 5958 5957 5956 5955 5955 5954 5953 5952 5951 5950 5949 5949 5948 5947 5946 5944 5943 5941 5940 5939 5937 5935 5934 5932 5931 5930
5952 5952 5954 5954 5955 5956 5957 5957 5957 5958 5959 5959 5960 5960 5960 5961 5962 5962 5962 5962 5963 5963 5964 5964 5964 5964 5964 5965 5965 5965 5965 5965 5965 5965 5965 5965 5965 5965 5965 5965 5965 5964 5963 5963 5963 5962 5961 5961 5962 5962 5962 5961 5961 5961 5960 5960 5959 5959 5959 5958 5957 5956 5955 5954 5953 5952 5951 5951 5950 5949 5948 5947 5946 5945 5944 5943 5941 5940 5939 5938 5936 5934 5933 5932 5930
5951 5951 5952 5954 5954 5956 5957 5957 5957 5957 5958 5958 5959 5959 5960 5960 5961 5962 5962 5962 5962 5963 5963 5963 5963 5963 5964 5964 5964 5965 5965 5965 5965 5965 5964 5965 5964 5964 5964 5964 5964 5964 5963 5963 5963 5962 5962 5962 5962 5962 5961 5961 5961 5960 5960 5960 5959 5959 5958 5957 5956 5955 5954 5953 5952 5952 5951 5950 5949 5949 5948 5947 5946 5945 5944 5943 5942 5940 5939 5938 5936 5935 5933 5932 5931
5950 5950 5951 5952 5953 5954 5955 5956 5956 5956 5957 5957 5957 5958 5959 5959 5960 5961 5962 5962 5962 5962 5962 5962 5962 5963 5963 5963 5964 5964 5964 5964 5964 5964 5964 5964 5964 5964 5963 5963 5963 5963 5963 5962 5962 5962 5962 5962 5962 5961 5961 5961 5960 5960 5959 5959 5959 5958 5957 5956 5955 5954 5953 5953 5952 5951 5950 5950 5949 5948 5947 5947 5946 5945 5944 5943 5942 5941 5939 5938 5936 5935 5934 5932 5931
5949 5949 5950 5951 5951 5952 5953 5954 5954 5955 5955 5955 5956 5957 5957 5958 5959 5960 5960 5961 5961 5961 5961 5961 5962 5962 5962 5963 5963 5963 5963 5963 5963 5963 5963 5963 5963 5963 5963 5963 5963 5963 5963 5962 5962 5962 5962 5962 5962 5961 5961 5960 5960 5959 5959 5958 5958 5957 5956 5955 5954 5953 5952 5952 5951 5950 5950 5949 5948 5947 5947 5946 5945 5945 5944 5943 5942 5940 5939 5938 5937 5935 5934 5933 5931
5947 5948 5949 5949 5950 5951 5952 5952 5953 5953 5953 5954 5954 5955 5956 5956 5957 5958 5959 5959 5960 5960 5960 5960 5960 5961 5961 5961 5962 5962 5962 5962 5962 5962 5962 5962 5962 5963 5963 5963 5962 5962 5962 5962 5962 5962 5962 5962 5961 5961 5960 5960 5959 5959 5958 5957 5956 5956 5955 5954 5953 5952 5951 5950 5950 5950 5949 5948 5947 5947 5946 5946 5945 5944 5943 5942 5941 5940 5939 5938 5936 5935 5934 5932 5931
5945 5946 5947 5948 5948 5949 5950 5950 5951 5951 5952 5952 5953 5953 5954 5955 5955 5956 5956 5957 5958 5959 5959 5959 5959 5960 5960 5960 5960 5961 5961 5961 5961 5961 5961 5962 5962 5962 5962 5962 5962 5962 5962 5962 5962 5961 5961 5961 5961 5960 5959 5959 5958 5957 5957 5956 5955 5954 5953 5952 5952 5951 5950 5949 5949 5949 5949 5948 5947 5946 5946 5945 5944 5943 5942 5941 5940 5939 5938 5937 5936 5935 5933 5932 5931
5942 5943 5945 5946 5947 5948 5948 5948 5949 5949 5950 5950 5951 5952 5952 5953 5954 5954 5955 5955 5956 5957 5957 5958 5958 5958 5959 5959 5959 5959 5959 5960 5960 5960 5960 5961 5961 5961 5961 5961 5961 5961 5961 5960 5960 5960 5960 5960 5959 5958 5958 5957 5956 5955 5955 5954 5953 5952 5951 5951 5950 5949 5948 5948 5947 5948 5948 5947 5946 5945 5945 5944 5944 5942 5941 5940 5939 5938 5937 5936 5935 5934 5933 5931 5930
5939 5940 5941 5943 5944 5946 5946 5946 5946 5947 5947 5948 5948 5949 5950 5951 5952 5953 5953 5953 5954 5955 5955 5956 5956 5957 5957 5957 5957 5957 5957 5958 5958 5959 5959 5960 5960 5960 5960 5959 5959 5959 5959 5959 5959 5958 5958 5958 5957 5957 5956 5955 5954 5954 5953 5952 5952 5951 5950 5949 5949 5948 5947 5946 5945 5945 5946 5945 5945 5944 5943 5942 5942 5941 5940 5939 5938 5937 5936 5935 5934 5933 5932 5931 5930
5936 5937 5938 5939 5941 5942 5943 5943 5943 5944 5944 5944 5945 5946 5947 5948 5949 5950 5951 5951 5951 5952 5953 5953 5954 5954 5955 5955 5955 5955 5955 5956 5956 5957 5957 5958 5958 5958 5958 5957 5957 5957 5957 5956 5956 5956 5956 5956 5955 5955 5954 5954 5953 5952 5952 5951 5950 5950 5949 5948 5948 5947 5947 5946 5944 5943 5943 5943 5943 5942 5941 5940 5940 5939 5938 5937 5936 5935 5934 5934 5933 5932 5931 5930 5929
5933 5934 5935 5936 5937 5938 5939 5940 5940 5941 5941 5941 5942 5943 5944 5945 5946 5947 5948 5948 5948 5950 5951 5951 5951 5952 5952 5952 5952 5953 5953 5953 5954 5954 5955 5955 5956 5955 5955 5955 5955 5955 5954 5954 5954 5954 5954 5954 5953 5953 5953 5952 5952 5951 5950 5950 5949 5949 5948 5947 5946 5946 5945 5945 5944 5942 5940 5940 5941 5940 5938 5937 5937 5937 5936 5935 5934 5933 5932 5932 5931 5931 5930 5929 5928
5930 5931 5932 5933 5934 5934 5935 5936 5937 5938 5938 5937 5938 5939 5940 5942 5943 5943 5944 5945 5945 5947 5947 5948 5948 5949 5950 5950 5950 5951 5951 5951 5952 5952 5952 5953 5953 5953 5953 5952 5952 5952 5952 5952 5952 5952 5952 5952 5951 5951 5950 5950 5950 5949 5948 5948 5948 5947 5946 5945 5945 5944 5943 5943 5943 5941 5939 5938 5938 5938 5936 5934 5934 5934 5933 5932 5932 5931 5930 5930 5929 5929 5928 5927 5926
5926 5927 5927 5929 5930 5931 5931 5932 5933 5934 5934 5934 5935 5936 5936 5939 5940 5940 5941 5942 5942 5943 5944 5945 5946 5947 5947 5948 5948 5948 5949 5949 5950 5950 5950 5950 5950 5950 5950 5950 5950 5950 5949 5949 5949 5949 5949 5949 5949 5949 5948 5948 5947 5947 5946 5946 5945 5945 5944 5943 5943 5942 5941 5941 5940 5939 5937 5936 5936 5936 5935 5933 5932 5932 5931 5930 5929 5929 5928 5928 5927 5926 5926 5925 5924
5922 5922 5922 5923 5925 5927 5928 5929 5929 5929 5929 5930 5932 5933 5933 5935 5937 5937 5938 5938 5939 5939 5941 5942 5943 5943 5944 5945 5945 5946 5946 5946 5947 5948 5948 5948 5948 5948 5948 5948 5948 5947 5947 5947 5947 5947 5947 5947 5947 5946 5945 5945 5945 5944 5944 5943 5943 5942 5942 5941 5940 5940 5939 5939 5938 5936 5935 5934 5933 5934 5933 5931 5930 5930 5929 5928 5927 5926 5926 5925 5925 5924 5924 5923 5923
5918 5918 5918 5919 5921 5923 5924 5925 5926 5925 5924 5927 5930 5930 5930 5931 5933 5934 5934 5935 5936 5936 5937 5938 5939 5940 5941 5942 5942 5942 5942 5943 5944 5945 5945 5945 5946 5946 5946 5945 5945 5944 5944 5944 5944 5945 5945 5945 5944 5943 5942 5942 5942 5942 5941 5940 5940 5940 5940 5939 5938 5937 5938 5937 5935 5934 5933 5931 5931 5931 5931 5929 5927 5927 5927 5926 5925 5924 5923 5922 5922 5921 5921 5921 5920
5915 5915 5916 5917 5918 5918 5919 5921 5921 5920 5921 5924 5926 5926 5926 5927 5928 5930 5932 5932 5933 5934 5934 5935 5937 5937 5938 5939 5939 5939 5939 5940 5941 5941 5941 5941 5942 5943 5943 5943 5942 5942 5941 5941 5941 5941 5942 5942 5942 5941 5940 5939 5938 5938 5937 5936 5936 5936 5937 5937 5935 5935 5936 5935 5933 5932 5931 5930 5929 5928 5929 5928 5925 5924 5924 5923 5923 5922 5921 5919 5919 5919 5918 5918 5918
5911 5912 5913 5913 5913 5914 5915 5915 5915 5915 5917 5919 5921 5922 5921 5922 5924 5926 5928 5930 5931 5931 5932 5933 5934 5935 5936 5936 5936 5936 5936 5937 5937 5938 5938 5938 5939 5940 5940 5939 5939 5939 5938 5938 5938 5938 5937 5937 5938 5937 5937 5936 5935 5934 5933 5932 5932 5933 5934 5934 5933 5932 5933 5932 5931 5930 5928 5927 5926 5925 5925 5925 5923 5922 5922 5921 5920 5920 5919 5917 5916 5916 5915 5914 5914
5908 5908 5909 5909 5910 5910 5910 5909 5909 5911 5913 5913 5915 5916 5916 5916 5919 5921 5923 5926 5927 5928 5929 5929 5930 5931 5932 5932 5932 5933 5932 5933 5933 5934 5934 5935 5935 5936 5937 5937 5936 5936 5935 5935 5935 5934 5934 5934 5934 5933 5933 5933 5932 5931 5931 5930 5929 5930 5931 5931 5931 5930 5930 5929 5928 5928 5926 5924 5923 5922 5922 5922 5920 5919 5919 5919 5919 5918 5916 5915 5914 5913 5912 5911 5911
5905 5905 5905 5906 5906 5906 5906 5904 5904 5907 5908 5907 5907 5909 5910 5911 5913 5915 5917 5920 5922 5924 5924 5924 5925 5927 5928 5929 5929 5928 5927 5928 5928 5929 5929 5930 5931 5932 5933 5933 5933 5933 5932 5932 5931 5930 5930 5930 5930 5930 5930 5929 5929 5928 5928 5927 5926 5926 5927 5928 5928 5928 5927 5926 5925 5924 5924 5922 5919 5919 5919 5919 5918 5917 5916 5916 5916 5915 5914 5913 5912 5911 5909 5908 5908